Regional Weather Roundup
Issued by NWS

Home | Current Version | Previous Version | Graphics & Text | Print | Product List | Glossary On
Versions: 1 2 3 4 5 6 7 8 9 10 11 12 13 14 15 16 17 18 19 20 21 22 23 24 25 26 27 28 29 30 31 32 33 34 35 36 37 38 39 40 41 42 43 44 45 46 47 48 49 50
000
ASUS45 KBOU 010207
RWRCO

WEATHER ROUNDUP FOR COLORADO
NATIONAL WEATHER SERVICE DENVER/BOULDER CO
800 PM MDT MON AUG 31 2015

NOTE: "FAIR" INDICATES FEW OR NO CLOUDS BELOW 12000 FEET WITH NO
SIGNIFICANT WEATHER AND/OR OBSTRUCTIONS TO VISIBILITY.

COZ001>005-013-030-031-010300-
...NORTHWEST COLORADO...

CITY           SKY/WX    TMP DP  RH WIND       PRES   REMARKS
CRAIG          CLOUDY    60  48  64 VRB3      30.21F
HAYDEN         NOT AVBL
MEEKER         LGT RAIN  60  51  72 SE6       30.24R
MOUNT WERNER   NOT AVBL
STEAMBOAT SPGS CLOUDY    60  44  55 N7G18     30.28F
WALDEN         CLOUDY    52  45  76 NW6       30.36F
$$

COZ006>008-011-010300-
...WEST CENTRAL VALLEYS...

CITY           SKY/WX    TMP DP  RH WIND       PRES   REMARKS
GRAND JUNCTION MOCLDY    74  60  61 E3        30.04F
MONTROSE       CLOUDY    71  54  54 S5        30.14F
EAGLE          MOCLDY    68  52  56 CALM      30.25R
RIFLE          MOCLDY    72  46  39 CALM      30.14R
DELTA          CLOUDY    75  53  46 NE3       30.09R
NUCLA          CLOUDY    72  37  28 W5        30.18R
$$

COZ017>023-064>068-010300-
...SOUTHWEST COLORADO...

CITY           SKY/WX    TMP DP  RH WIND       PRES   REMARKS
DURANGO        MOCLDY    72  38  29 W13       30.18S
CORTEZ         CLEAR     73  46  38 CALM      30.14S
PAGOSA SPRINGS MOCLDY    67  42  39 CALM      30.27S
TELLURIDE      MOCLDY    59  48  66 SE7       30.40S
WOLF CREEK PAS CLOUDY    46  37  71 SW9       30.61R
$$

COZ009-010-012-014-032>034-037-058>063-010300-
...CENTRAL COLORADO...

CITY           SKY/WX    TMP DP  RH WIND       PRES   REMARKS
ASPEN          MOCLDY    59  50  72 S6        30.30R
BUENA VISTA    MOCLDY    60  53  76 NW5       30.30R
COPPER MTN     MOCLDY    48  41  76 W15       30.60S
BERTHOUD PASS  FAIR      39  28  65 NW9G20    30.63S
COTTONWOOD PAS MOCLDY    59  45  58 CALM      30.44R
GUNNISON       PTCLDY    66  45  45 N5        30.30R
KREMMLING      MOCLDY    61  43  51 N6        30.31R
LEADVILLE      MOCLDY    55  39  54 NW6       30.43R
MONARCH PASS   MOCLDY    48  37  66 W14       30.69R
SALIDA         MOCLDY    68  47  46 NW5       30.33R
SUNLIGHT       MOCLDY    52  46  82 NE5       30.53S
WILKERSON PASS MOCLDY    50  39  66 CALM      30.57R
$$

COZ069>075-010300-
...SAN LUIS VALLEY/SANGRE DE CRISTO MOUNTAINS...

CITY           SKY/WX    TMP DP  RH WIND       PRES   REMARKS
ALAMOSA        LGT RAIN  64  50  60 MISG      30.29R
LA VETA PASS   TSTM      52  43  71 MISG      30.46S
SAGUACHE       MOCLDY    61  45  55 E6        30.29S
$$

COZ035-036-038>040-010300-
...NORTHERN COLORADO FRONT RANGE...

CITY           SKY/WX    TMP DP  RH WIND       PRES   REMARKS
DENVER INTL AP CLOUDY    64  55  72 S7        30.16R
DMNS CITY PARK   N/A     66  54  65 E10       30.15R
AURORA         MOCLDY    65  55  70 SE6       30.17S
FRONT RANGE AP NOT AVBL
ERIE MUNI ARPT MOCLDY    66  58  74 CALM      30.13R
BOULDER MUN AP MOCLDY    68  55  64 S7        30.13R
CENTENNIAL     MOCLDY    64  56  75 CALM      30.18S
BROOMFIELD     MOCLDY    66  57  72 SE9       30.16R
FORT COLLINS   MOCLDY    70  48  46 S8        30.13R
LONGMONT       MOCLDY    70  54  57 E7        30.14R
$$

COZ041-046-047-076>085-087-088-010300-
...PIKES PEAK/PALMER DIVIDE AND SOUTHERN FOOTHILLS...

CITY           SKY/WX    TMP DP  RH WIND       PRES   REMARKS
COLO. SPRINGS  MOCLDY    64  54  69 NE8       30.20R
A. F. ACADEMY  CLOUDY    63  53  69 N7        30.21F
ELLICOTT       MOCLDY   N/A N/A N/A N7        30.18R
FALCON         MOCLDY    61  51  69 MISG      30.24F
FORT CARSON    CLOUDY    64  57  77 N8        30.15S
LIMON          CLOUDY    61  57  87 NW10      30.15R
MONUMENT HILL  MOCLDY    59  52  77 CALM      30.26S
TRINIDAD       CLOUDY    73  50  44 W10       30.12S
$$

COZ042>045-048>051-090-091-010300-
...NORTHEAST COLORADO...

CITY           SKY/WX    TMP DP  RH WIND       PRES   REMARKS
GREELEY ARPT   MOCLDY    70  52  52 SE7       30.13R
AKRON          CLOUDY    68  56  65 W24G30    30.10R
BURLINGTON     MOCLDY    76  51  41 E7        29.98R
WRAY           CLOUDY    81  51  35 N9        29.96R
STERLING       CLOUDY    77  52  41 NW15G23   30.03R
HOLYOKE        MOCLDY    79  50  36 N8        29.98R
FORT MORGAN    LGT RAIN  65  56  74 SW7       30.13S
$$

COZ086-089-092>099-010300-
...SOUTHEAST COLORADO...

CITY           SKY/WX    TMP DP  RH WIND       PRES   REMARKS
PUEBLO         CLOUDY    76  54  46 N10       30.06F
LA JUNTA       CLOUDY    78  54  43 NW15      30.02R
LAMAR          CLOUDY    82  62  50 NW6       29.88R
SPRINGFIELD      N/A     80  52  37 S8        29.97R
$$



USA.gov is the U.S. government's official web portal to all federal, state and local government web resources and services.